Location: Melque
(41.0517°N, 4.4694°W)
Time: 20:48:51
(UTC+00:00)

Meteor 2-20 - Pass Details

Date: 20 March 2026
Orbit: 939 x 958 km, 82.5° (Epoch: 11 April)

Event Time Altitude Azimuth Distance (km) Brightness Sun altitude
Rises 18:56:52 0° 338° (NNW) 3,645 7.9 -5.9°
Reaches altitude 10° 18:59:53 10° 325° (NW) 2,693 7.5 -6.5°
Maximum altitude 19:04:31 23° 276° (W) 1,915 7.3 -7.3°
Drops below altitude 10° 19:09:07 10° 226° (SW) 2,672 7.4 -8.2°
Sets 19:12:07 0° 212° (SSW) 3,609 7.8 -8.8°
